• Unsere Gaststätte hat ab dem 20.06.2020 wieder für Sie geöffenet!

    Unsere Gaststätte hat ab dem 20.06.2020 wieder für Sie geöffenet!

    Wir freuen uns auf Ihren Besuch!

  • Frühling ist Ausbildungsbeginn !!

    Frühling ist Ausbildungsbeginn !!

    Du wolltest schon immer mal Pilot werden ?
    Jetzt ist der richtige Zeitpunkt!
    Die Ausbildung zum Segelflugpiloten findet wieder statt.
    Ab 14 Jahre geht es bereits los.
    Auch die Ausbildung zum

    zum Bericht
  • GPS Triangle WM

    GPS Triangle WM

    Die GPS WM wurde aufgrund der Corona Beschränkungen auf 2021 verschoben.

    zum Bericht
  • 1
  • 1

WebCam

  
Kamera Halle
Kamera Vorfeld

GPS Triangle WM Sports Class

AeroClub Göppingen-Salach e.V.
Ausrichter der Modellflug
GPS Triangle-WM 2020

 

Aufgrund der aktuellen Corona Situation ist die WM auf den 15.8.-20.8.2021 verschoben
Wetter EDDS

METAR

EDDS 260120Z 29002KT 8000 BCFG FEW001 M03/M03 Q1022 =
EDDS 252300Z 2600/2624 VRB02KT CAVOK TEMPO 2601/2608 3000 BCFG PROB30 TEMPO 2602/2608 0400 FZFG


TAF

EDDS 252300Z 2600/2624 VRB02KT CAVOK TEMPO 2601/2608 3000 BCFG PROB30 TEMPO 2602/2608 0400 FZFG =


SR/SS

06:46 / 15:31 UTC
(EDSO 26-11-2020)